Content
SEND FEEDBACK

Daily
Averages
Monthly
Summary
United States of America

MONTICELLO, INDIANA


Home > North America > United States > Indiana
Elevation: 676 feet     Latitude: 40 44N     Longitude: 086 41W

WEATHER
 
SELECT A DAY
Number of Records: 60,223;   Date Range: 10/28/11 - 7/21/14
 
SHARE

PRINT THIS DATA

[ ← Previous Day ]
WEATHER ALMANAC - JANUARY 31, 2013
[ Next Day → ]
[ °C ]   °F
Weather ElementAverageHighLow
Temperature19.6 °F26.6 °F (12:35 am)10.4 °F (10:35 pm)
Dewpoint12.4 °F21.2 °F (12:35 am)1.4 °F (10:35 pm)
Humidity74 %86 % (1:35 am)58 % (7:15 pm)
Barometer29.86 in30.11 in (11:55 pm)29.61 in (12:35 am)
Wind Speed20.2 mph29.9 mph (11:35 am)
Wind Gust40.3 mph (4:15 am)
Weather ElementAverage
Visibility8.1 mi
Wind DirectionW (274.2 °)

Weather ElementTotal
Precipitation---
Heating Degree Days46.5 (Base 65)
Averaged from 69 records on January 31, 2013
WEATHER CONDITIONS BREAKOUT
WIND DIRECTION BREAKOUT
WEATHER BY HOUR - JANUARY 31, 2013
[ °C ]   °F
Local TimeTemperatureDewpointHumidityBarometerVisibilityWind DirectionWind SpeedGust SpeedPrecipitationEventsConditions
12:35 AM26.6 °F21.2 °F80 %29.61 in7.0 miWest (270°)23.0 mph38.0 mphSnowLight Snow
12:55 AM24.8 °F19.4 °F80 %29.62 in10.0 miWest (270°)26.5 mph34.5 mphOvercast
1:15 AM24.8 °F19.4 °F80 %29.63 in7.0 miWest (270°)19.6 mph28.8 mphSnowLight Snow
1:35 AM23.0 °F19.4 °F86 %29.65 in10.0 miWest (270°)25.3 mph33.4 mphSnowLight Snow
1:55 AM23.0 °F17.6 °F80 %29.66 in7.0 miWest (260°)24.2 mph35.7 mphSnowLight Snow
2:15 AM23.0 °F17.6 °F80 %29.66 in10.0 miWest (260°)27.6 mph35.7 mphSnowLight Snow
2:35 AM23.0 °F17.6 °F80 %29.68 in10.0 miWest (270°)23.0 mph29.9 mphSnowLight Snow
2:55 AM23.0 °F19.4 °F86 %29.69 in4.0 miWest (270°)23.0 mph32.2 mphSnowLight Snow
3:15 AM23.0 °F17.6 °F80 %29.69 in5.0 miWest (270°)24.2 mph36.8 mphSnowLight Snow
3:35 AM23.0 °F19.4 °F86 %29.70 in5.0 miWest (260°)21.9 mph28.8 mphSnowLight Snow
3:55 AM21.2 °F17.6 °F86 %29.70 in3.0 miWest (270°)21.9 mph34.5 mphSnowLight Snow
4:15 AM21.2 °F15.8 °F80 %29.71 in7.0 miWest (270°)25.3 mph40.3 mphSnowLight Snow
4:35 AM21.2 °F14.0 °F74 %29.73 in4.0 miWest (270°)27.6 mph34.5 mphSnowLight Snow
4:55 AM19.4 °F12.2 °F74 %29.74 in7.0 miWest (270°)20.7 mph31.1 mphSnowLight Snow
5:15 AM19.4 °F12.2 °F74 %29.74 in7.0 miWest (270°)18.4 mph28.8 mphSnowLight Snow
5:35 AM19.4 °F14.0 °F80 %29.75 in7.0 miWest (270°)17.3 mph26.5 mphSnowLight Snow
5:55 AM19.4 °F14.0 °F80 %29.75 in7.0 miWest (270°)23.0 mph34.5 mphSnowLight Snow
6:15 AM19.4 °F12.2 °F74 %29.76 in10.0 miWest (270°)21.9 mph32.2 mphSnowLight Snow
6:35 AM19.4 °F12.2 °F74 %29.77 in10.0 miWest (260°)20.7 mph29.9 mphSnowLight Snow
6:55 AM17.6 °F12.2 °F79 %29.78 in5.0 miWest (270°)24.2 mph31.1 mphSnowLight Snow
7:15 AM19.4 °F10.4 °F68 %29.78 in10.0 miWest (280°)18.4 mph32.2 mphOvercast
7:35 AM19.4 °F12.2 °F74 %29.79 in10.0 miWest (270°)13.8 mph21.9 mphSnowLight Snow
7:55 AM19.4 °F14.0 °F80 %29.79 in10.0 miWest (270°)15.0 mph21.9 mphSnowLight Snow
8:15 AM19.4 °F15.8 °F86 %29.80 in7.0 miWest (270°)15.0 mph20.7 mphSnowLight Snow
8:55 AM21.2 °F17.6 °F86 %29.81 in7.0 miWest (260°)16.1 mphSnowLight Snow
9:15 AM21.2 °F17.6 °F86 %29.81 in5.0 miWest (270°)12.7 mph16.1 mphSnowLight Snow
9:35 AM23.0 °F17.6 °F80 %29.83 in4.0 miWest (280°)18.4 mph25.3 mphSnowLight Snow
9:55 AM23.0 °F17.6 °F80 %29.83 in10.0 miWest (270°)20.7 mph25.3 mphSnowLight Snow
10:15 AM23.0 °F17.6 °F80 %29.83 in10.0 miWest (270°)17.3 mph23.0 mphOvercast
10:35 AM24.8 °F17.6 °F74 %29.84 in10.0 miWest (280°)19.6 mph24.2 mphOvercast
10:55 AM23.0 °F15.8 °F74 %29.85 in5.0 miWest (280°)24.2 mph31.1 mphSnowLight Snow
11:15 AM23.0 °F14.0 °F68 %29.86 in10.0 miWest (260°)26.5 mph33.4 mphOvercast
11:35 AM23.0 °F14.0 °F68 %29.86 in10.0 miWest (260°)29.9 mph38.0 mphOvercast
11:55 AM23.0 °F14.0 °F68 %29.87 in10.0 miWest (260°)27.6 mph36.8 mphOvercast
12:15 PM23.0 °F14.0 °F68 %29.87 in10.0 miWest (270°)19.6 mph29.9 mphOvercast
12:35 PM23.0 °F14.0 °F68 %29.87 in10.0 miWest (260°)23.0 mph32.2 mphOvercast
12:55 PM23.0 °F14.0 °F68 %29.87 in10.0 miWest (260°)23.0 mph34.5 mphOvercast
1:15 PM23.0 °F14.0 °F68 %29.87 in10.0 miWest (260°)25.3 mph34.5 mphOvercast
1:35 PM23.0 °F14.0 °F68 %29.88 in10.0 miWest (270°)26.5 mph38.0 mphOvercast
1:55 PM23.0 °F14.0 °F68 %29.88 in10.0 miWest (270°)20.7 mph32.2 mphOvercast
2:15 PM21.2 °F14.0 °F74 %29.88 in7.0 miWest (270°)19.6 mph29.9 mphSnowLight Snow
2:35 PM23.0 °F14.0 °F68 %29.89 in10.0 miWest (270°)21.9 mph34.5 mphOvercast
3:15 PM23.0 °F12.2 °F63 %29.88 in10.0 miWest (280°)16.1 mph26.5 mphOvercast
3:35 PM21.2 °F12.2 °F68 %29.88 in10.0 miWest (270°)20.7 mph27.6 mphOvercast
3:55 PM21.2 °F12.2 °F68 %29.88 in10.0 miWest (270°)19.6 mph25.3 mphOvercast
4:15 PM21.2 °F14.0 °F74 %29.89 in7.0 miWNW (290°)13.8 mph21.9 mphSnowLight Snow
4:35 PM19.4 °F14.0 °F80 %29.89 in3.0 miWNW (290°)12.7 mph17.3 mphSnowLight Snow
4:55 PM19.4 °F12.2 °F74 %29.90 in4.0 miWest (280°)19.6 mph24.2 mphSnowLight Snow
5:15 PM19.4 °F12.2 °F74 %29.91 in5.0 miWest (280°)16.1 mph24.2 mphSnowLight Snow
5:35 PM19.4 °F8.6 °F63 %29.92 in10.0 miWest (280°)18.4 mph29.9 mphOvercast
5:55 PM17.6 °F10.4 °F73 %29.94 in10.0 miWest (270°)19.6 mph26.5 mphOvercast
6:15 PM17.6 °F10.4 °F73 %29.95 in10.0 miWest (270°)18.4 mph27.6 mphOvercast
6:35 PM17.6 °F10.4 °F73 %29.96 in5.0 miWest (280°)19.6 mph26.5 mphSnowLight Snow
6:55 PM17.6 °F8.6 °F68 %29.97 in10.0 miWest (280°)18.4 mph26.5 mphOvercast
7:15 PM17.6 °F5.0 °F58 %29.98 in10.0 miWNW (290°)19.6 mph27.6 mphOvercast
7:35 PM15.8 °F6.8 °F68 %29.99 in10.0 miWNW (290°)18.4 mph24.2 mphOvercast
7:55 PM15.8 °F5.0 °F62 %30.00 in10.0 miWNW (290°)18.4 mph27.6 mphOvercast
8:15 PM15.8 °F8.6 °F73 %30.00 in5.0 miWest (270°)19.6 mph26.5 mphSnowLight Snow
8:35 PM14.0 °F5.0 °F67 %30.01 in10.0 miWest (280°)18.4 mph23.0 mphOvercast
8:55 PM14.0 °F5.0 °F67 %30.02 in10.0 miWest (280°)19.6 mph25.3 mphOvercast
9:15 PM12.2 °F5.0 °F73 %30.02 in10.0 miWest (280°)19.6 mph29.9 mphOvercast
9:35 PM12.2 °F5.0 °F73 %30.03 in10.0 miWNW (290°)21.9 mph28.8 mphOvercast
9:55 PM12.2 °F6.8 °F79 %30.04 in2.0 miWNW (290°)15.0 mph27.6 mphSnowLight Snow
10:15 PM12.2 °F5.0 °F73 %30.05 in4.0 miWNW (290°)17.3 mph23.0 mphSnowLight Snow
10:35 PM10.4 °F1.4 °F67 %30.07 in10.0 miWNW (290°)17.3 mph27.6 mphMostly Cloudy
10:55 PM10.4 °F1.4 °F67 %30.08 in10.0 miWNW (300°)16.1 mph24.2 mphScattered Clouds
11:15 PM10.4 °F1.4 °F67 %30.09 in10.0 miWNW (300°)13.8 mph20.7 mphMostly Cloudy
11:35 PM10.4 °F3.2 °F73 %30.10 in10.0 miWest (280°)16.1 mph24.2 mphOvercast
11:55 PM10.4 °F3.2 °F73 %30.11 in4.0 miWNW (290°)16.1 mph26.5 mphSnowLight Snow
Hourly data recorded from KGGP, located miles away from Monticello, Indiana







STORIES FROM OUR PARTNERS